RH
20 20 18 15 12 8 4 2 2 2 1 2 1 2 2 2 2 2 3 3 3 3 3 3 3 2 2 2 2 2 2 2 2 3 3 3 3 4 4 4 4 5 5 5 5 5 5 6 5 6 5 5 6 5 6 6 6 5 8 15 19 24 24 21 21 17 11 6 6 7 7 7 7 8 9 10 10 10 10 11 12 11 11 12 12 12 13 13
34 32 28 23 19 16 11 6 3 2 2 2 2 2 2 2 3 3 3 3 3 4 3 3 3 3 2 2 2 2 2 2 3 3 3 3 4 4 4 4 4 5 5 5 5 6 6 6 5 6 6 5 6 5 6 6 6 6 7 12 17 22 22 21 19 13 8 7 7 8 9 9 9 9 10 10 11 11 12 11 11 11 12 12 12 12 13 13
39 37 34 30 27 26 25 19 10 4 2 3 3 3 2 2 2 2 3 3 3 4 4 4 3 3 3 2 2 2 2 2 2 3 3 3 3 4 4 4 5 5 5 5 5 6 6 6 6 6 6 6 6 6 6 6 7 7 7 9 12 14 14 14 12 9 8 9 9 9 10 10 10 10 11 11 11 13 12 11 11 12 13 13 12 12 12 13
42 38 36 34 32 32 33 31 24 17 13 11 10 8 9 9 6 4 3 3 3 3 4 4 4 3 3 3 2 3 2 3 4 3 3 3 4 4 4 4 5 5 5 6 6 6 6 6 6 6 6 6 6 7 7 7 7 8 7 7 9 9 8 9 8 9 10 10 9 9 10 10 11 11 12 12 12 13 12 12 12 13 13 13 13 13 12 12
44 39 34 34 34 35 35 34 33 31 29 25 22 19 19 19 16 12 8 4 3 4 4 3 3 3 3 3 2 3 2 5 7 4 3 4 4 4 5 5 5 6 5 6 6 6 6 6 6 6 6 7 7 7 8 8 8 8 9 9 8 8 9 9 10 10 10 10 10 10 10 11 12 13 13 13 13 14 13 13 14 14 15 14 14 14 14 14
47 45 40 36 36 37 37 36 36 35 35 33 31 28 26 24 22 20 15 9 5 5 5 4 4 3 3 3 3 3 2 5 6 4 4 4 4 5 5 6 5 6 6 6 6 6 6 6 6 7 7 7 7 8 8 8 8 8 9 9 9 9 10 10 10 10 11 11 11 12 12 13 13 13 14 13 14 15 15 16 16 16 17 16 16 16 16 16
49 50 45 42 41 39 39 39 38 38 38 37 34 32 29 27 25 24 21 14 8 6 6 5 4 4 3 3 3 4 3 4 4 4 4 4 4 5 5 6 6 6 6 6 7 7 7 7 7 7 7 8 8 8 8 9 8 10 10 9 10 10 10 10 11 11 12 13 12 12 13 13 12 13 14 14 15 16 16 16 17 17 17 17 17 17 17 18
46 50 41 40 44 43 41 40 41 41 40 38 35 31 28 27 24 22 20 16 11 5 5 5 5 5 4 3 3 4 4 5 4 4 4 4 5 5 5 6 6 6 6 7 7 7 7 7 7 8 8 8 9 9 9 9 10 12 11 10 10 11 11 11 11 12 13 13 12 12 12 13 12 13 14 15 17 17 16 16 16 15 15 17 18 18 17 17
32 39 34 31 38 43 41 39 43 42 39 39 38 36 33 31 27 20 15 13 11 6 4 4 4 5 4 4 4 4 6 7 4 4 4 5 5 6 6 6 7 7 7 7 7 8 8 8 8 8 9 9 9 9 9 9 11 12 11 10 11 12 12 12 13 13 13 12 11 10 11 12 12 13 14 16 18 17 16 17 16 15 15 15 17 18 18 18
25 26 26 24 30 36 36 37 43 41 39 41 41 40 40 38 36 31 23 15 10 5 4 4 4 5 5 5 5 4 6 7 5 4 5 5 6 6 7 7 7 7 7 8 8 9 9 9 9 9 9 10 10 10 10 10 11 11 11 11 11 12 13 12 14 13 12 12 10 9 9 11 12 13 13 15 17 16 16 17 16 16 16 16 16 18 19 19
31 27 25 24 24 27 32 39 42 40 41 42 39 38 39 39 39 37 34 28 18 8 3 4 4 4 5 5 4 5 6 6 5 5 5 6 7 7 7 7 7 7 8 9 9 9 9 9 10 9 10 10 10 10 10 11 10 11 12 11 13 14 12 12 14 12 12 12 11 10 9 11 13 12 13 15 16 15 16 17 17 17 17 17 17 18 19 19
36 32 30 29 27 25 31 38 38 38 40 39 36 35 36 38 39 37 34 32 25 14 5 3 4 5 5 4 5 5 5 5 5 5 6 6 7 7 7 7 7 7 8 9 9 9 10 10 10 10 10 10 10 10 10 10 10 12 13 14 16 14 12 14 14 11 13 13 12 12 9 10 13 13 14 15 15 15 16 18 18 18 18 18 17 17 19 20
45 41 36 33 32 30 31 34 33 35 37 36 35 36 37 38 40 40 36 29 22 15 8 3 3 5 5 4 5 5 5 5 5 6 6 7 7 7 7 7 8 8 9 10 10 9 10 10 10 10 9 9 9 9 10 8 10 15 18 18 18 13 13 14 13 11 13 14 14 14 11 10 12 14 15 17 16 14 16 18 18 19 19 18 18 18 19 20
48 48 45 41 36 33 33 34 34 34 35 35 36 37 38 39 39 41 39 32 21 11 6 3 3 4 5 5 5 5 5 5 5 6 7 7 7 7 8 8 8 9 9 10 10 9 9 9 9 9 8 8 9 9 9 8 13 19 20 19 16 14 15 14 13 13 13 14 14 16 14 10 11 13 15 18 18 15 18 19 19 20 20 19 20 21 20 20
46 47 49 49 45 41 36 35 35 35 34 35 37 38 37 38 39 38 39 36 26 12 4 3 3 4 5 5 5 5 5 6 6 7 7 8 8 8 8 8 9 9 9 10 9 9 9 9 9 8 8 8 9 9 7 9 16 20 17 16 14 14 16 14 14 14 13 15 15 16 16 11 11 13 15 19 19 18 21 20 20 21 21 21 22 23 23 22
46 46 49 51 52 50 44 40 37 35 34 34 36 37 38 39 38 38 39 36 28 14 4 4 4 4 5 6 6 6 6 6 7 7 8 8 8 8 9 9 9 9 9 10 9 9 9 8 8 8 9 9 9 9 7 9 15 16 15 13 12 14 14 13 15 14 13 15 15 17 17 13 12 13 17 21 21 22 25 23 22 23 23 23 24 24 24 24
44 45 47 50 52 52 48 43 37 31 30 33 36 37 40 40 39 39 37 33 26 14 5 4 4 4 6 7 7 6 6 7 7 8 8 8 9 9 9 9 9 10 10 9 9 9 9 9 9 8 9 10 9 8 9 10 13 13 13 13 11 12 13 13 14 14 14 16 16 18 17 14 13 13 18 21 20 22 26 27 26 25 25 26 26 26 25 24
45 44 43 44 46 48 49 46 40 30 23 27 35 39 41 41 41 38 35 31 23 12 7 6 5 5 9 12 11 8 8 8 8 8 8 8 9 9 9 9 9 9 9 9 9 9 9 9 8 8 9 10 9 9 11 12 11 12 13 13 12 12 12 13 14 14 16 16 17 18 18 16 13 13 18 21 20 22 27 29 27 26 28 27 26 26 24 24
48 48 45 42 38 38 41 43 43 35 25 23 28 36 40 40 39 35 32 30 21 10 7 8 7 6 9 11 9 8 7 7 9 9 9 9 9 9 9 9 9 9 9 9 9 9 8 8 8 9 9 10 11 11 12 12 11 12 13 13 13 13 13 13 15 15 16 18 18 19 19 17 14 14 19 23 22 25 30 29 27 28 28 26 25 25 24 25
49 48 47 46 40 35 36 37 36 32 29 26 27 35 38 35 34 32 28 27 20 11 7 8 8 7 7 7 7 7 6 6 8 8 9 9 9 9 9 9 9 9 9 9 9 8 8 8 8 9 10 12 13 12 12 12 12 13 13 14 14 14 14 15 17 18 18 20 19 19 20 18 15 15 21 26 27 29 31 29 28 28 27 26 25 26 27 28
47 43 39 41 42 41 42 41 37 29 25 25 28 35 37 33 33 30 27 23 17 11 8 8 8 8 7 6 6 6 6 6 7 8 9 8 9 9 9 10 9 9 9 9 8 8 9 9 9 10 12 12 13 12 12 12 12 13 13 14 14 14 16 17 20 21 22 23 22 21 21 18 16 17 21 26 29 31 30 28 28 28 27 28 28 29 31 32
46 43 35 32 36 41 42 39 34 25 19 21 26 33 36 34 30 27 25 19 11 9 9 8 8 8 8 7 7 6 6 6 7 9 8 8 8 9 9 9 8 8 9 8 9 9 9 9 10 11 11 12 13 12 12 13 13 13 14 14 14 15 17 19 22 24 24 25 22 21 22 18 17 19 23 28 31 31 30 28 29 29 30 31 32 35 36 37
46 42 32 25 28 35 37 32 25 19 18 19 24 31 34 32 29 27 23 14 9 9 9 8 8 9 9 8 8 7 7 7 8 9 8 8 8 8 8 8 9 9 9 10 10 10 9 10 11 10 10 11 12 12 12 13 13 13 14 14 15 16 19 22 24 25 26 25 23 24 24 20 22 26 29 32 32 30 29 29 30 32 34 36 37 39 41 42
40 32 25 24 27 32 34 33 28 23 20 20 27 34 36 36 33 27 20 11 8 11 10 10 10 9 9 9 8 8 9 8 8 9 9 9 9 9 9 9 10 10 10 11 10 10 9 9 9 10 11 12 12 13 13 12 12 13 14 15 17 19 22 24 24 26 25 24 26 26 25 23 28 33 32 31 31 29 30 30 30 33 36 39 41 42 43 43
25 22 23 26 30 34 37 37 35 32 29 29 35 38 40 44 36 24 18 11 9 14 15 13 11 11 12 12 12 12 10 11 11 12 11 10 10 10 10 10 10 10 11 11 10 9 8 8 11 12 13 13 12 12 12 12 14 14 15 18 21 22 24 26 26 27 25 26 28 28 34 37 32 32 31 29 30 30 30 31 31 33 35 38 41 42 42 42
20 22 26 32 35 38 40 38 39 41 39 37 40 42 46 47 31 17 14 10 12 17 15 12 12 14 14 13 14 12 11 14 14 12 11 11 10 9 10 9 9 10 10 10 9 9 10 12 13 14 13 12 11 12 13 14 16 18 19 20 22 24 26 27 26 27 25 27 28 27 40 45 33 30 32 30 30 31 32 33 33 33 35 38 40 41 41 41
24 23 25 32 34 34 34 33 35 37 34 32 34 40 43 35 19 11 11 15 19 17 13 15 14 14 14 11 12 10 10 12 11 11 12 11 10 9 9 9 9 9 9 9 9 10 12 13 12 12 13 12 13 14 15 16 18 20 21 22 24 25 26 25 24 27 28 29 29 27 36 43 36 33 34 32 32 33 34 35 35 36 37 40 41 41 41 42
26 23 19 20 20 19 21 24 26 23 20 19 19 22 24 18 11 9 12 20 24 17 14 17 15 14 13 10 10 9 9 9 8 11 11 9 8 8 8 8 8 9 9 10 10 10 11 11 13 14 14 14 15 15 17 18 20 21 22 23 24 25 26 24 25 29 33 37 34 27 34 44 41 36 37 38 35 35 38 39 39 39 41 43 43 43 42 43
27 23 15 13 13 13 14 17 19 17 14 12 11 10 10 9 9 10 18 24 21 16 15 15 15 14 13 11 10 9 8 8 8 10 9 8 9 8 9 9 8 10 11 11 10 11 13 15 16 15 14 16 17 18 19 20 21 22 22 23 24 25 23 22 30 34 38 45 39 29 34 44 44 38 38 43 39 37 40 41 43 43 43 45 44 44 44 44
22 19 13 12 13 12 12 13 14 14 12 11 10 8 7 9 10 16 29 29 17 14 15 15 16 14 12 10 9 8 8 8 9 9 9 10 9 9 9 10 11 12 11 11 12 15 17 16 16 15 16 19 19 20 20 20 22 21 21 23 23 24 22 27 36 34 42 53 41 30 35 42 47 42 38 42 42 40 41 41 43 43 44 46 44 44 45 45
12 13 13 12 11 11 12 12 12 11 11 11 11 9 7 10 14 19 27 24 16 16 15 14 14 12 10 9 8 8 8 9 10 10 10 10 9 10 10 11 12 11 10 13 15 16 15 14 15 17 20 21 20 20 20 20 22 22 24 24 23 25 26 34 39 35 50 63 42 32 39 42 46 42 37 42 42 42 44 43 43 44 45 46 45 46 47 47
8 11 13 12 11 11 11 11 10 9 10 11 11 11 7 9 17 21 20 17 15 17 13 11 11 9 9 9 8 9 9 10 11 10 10 10 10 11 11 12 12 12 14 15 14 14 15 17 18 20 21 21 21 20 19 21 23 24 25 22 27 36 35 42 49 44 52 56 37 32 39 38 38 35 35 40 39 42 47 47 47 46 46 46 47 49 49 49
8 10 12 13 12 12 11 11 11 10 11 10 9 10 7 9 18 21 16 13 13 13 11 10 10 9 9 10 9 10 9 11 11 11 12 11 12 13 14 15 15 17 18 16 16 18 19 20 20 21 22 21 21 20 20 23 23 24 24 23 32 43 44 53 60 52 48 45 34 32 36 35 35 35 36 38 39 44 48 48 48 48 48 50 51 51 52 52
11 9 9 10 11 12 12 11 11 10 9 8 7 7 6 11 19 18 14 11 10 10 10 10 9 10 11 11 11 10 10 12 11 12 14 14 15 16 16 17 18 18 18 18 22 24 22 22 21 22 22 21 21 21 22 23 23 25 27 27 30 34 38 49 56 53 49 44 37 36 37 36 37 41 42 41 42 44 46 47 48 48 50 52 52 53 54 54
24 17 12 9 8 8 8 7 7 7 6 7 7 7 9 15 19 15 12 10 9 10 10 10 10 11 12 11 12 12 13 13 13 14 15 16 17 18 18 19 18 18 19 20 23 24 23 24 24 23 21 21 22 22 23 24 25 28 29 29 31 31 34 41 45 44 42 46 48 42 39 40 42 47 48 46 47 46 46 48 49 52 54 53 54 55 56 57
33 25 16 11 7 6 6 5 6 6 6 7 7 8 11 15 15 12 10 11 11 11 9 10 11 12 13 12 13 14 14 15 14 15 16 17 18 20 21 20 18 19 21 21 22 24 26 25 23 22 21 22 24 24 26 26 27 30 30 30 32 34 35 38 39 38 38 49 53 40 39 47 49 52 54 52 53 51 50 53 53 54 54 53 56 57 58 59
34 25 16 10 7 7 6 6 7 7 7 8 9 11 13 13 12 11 12 12 11 11 10 11 13 14 14 14 13 14 14 15 16 15 17 18 20 22 22 21 21 21 21 22 23 25 28 25 21 21 22 24 25 25 27 28 29 31 31 32 33 34 38 39 41 48 56 64 57 39 38 48 51 53 54 54 56 55 54 55 54 54 54 56 59 60 60 61
28 19 11 9 8 7 7 7 7 8 8 9 10 12 14 13 12 12 12 11 11 11 12 12 14 15 15 15 15 15 16 16 16 17 18 21 22 23 23 22 22 22 22 23 23 24 27 27 24 24 25 25 26 27 28 29 31 32 33 34 33 35 40 39 42 55 68 75 69 50 38 39 44 47 50 54 57 56 56 56 55 55 57 59 60 61 63 63
20 12 8 8 7 7 8 8 9 10 10 10 10 12 13 12 12 12 11 11 11 11 12 14 15 16 16 16 16 16 17 16 17 19 20 21 22 23 23 22 23 23 23 24 24 24 27 30 29 26 26 27 27 28 30 32 34 35 35 36 36 38 40 39 42 49 58 68 71 65 52 44 43 44 47 52 54 55 57 56 58 60 62 64 64 65 64 62
12 8 7 8 7 8 9 9 10 10 9 10 10 11 11 11 11 11 10 11 12 13 14 15 16 16 16 17 18 18 18 17 18 19 20 21 22 23 23 23 23 24 24 25 25 26 28 31 31 27 27 29 29 30 33 36 37 37 37 38 38 39 40 43 45 43 46 58 70 76 70 52 46 49 50 52 54 57 59 60 63 66 66 67 67 64 63 61
8 7 8 7 8 9 9 9 9 9 9 9 9 10 10 10 10 10 11 13 14 15 16 16 17 17 17 18 19 19 18 18 19 20 21 22 23 24 24 24 24 25 25 26 27 28 29 32 33 30 28 29 29 31 34 38 40 39 39 37 36 39 41 47 54 48 44 52 62 74 75 59 52 56 55 56 60 61 63 66 67 68 68 68 65 64 64 65
6 7 8 8 10 9 9 9 9 9 8 8 8 9 9 10 10 12 13 15 16 16 17 17 17 18 18 19 19 19 19 19 21 22 22 23 24 25 25 25 26 26 27 28 28 30 31 33 34 32 30 31 31 32 36 39 40 40 39 38 38 42 41 44 55 53 49 52 54 61 70 64 59 62 62 63 65 65 67 68 67 68 67 64 63 63 65 69
7 8 8 9 10 9 8 8 8 7 7 7 8 8 10 11 13 14 16 16 17 17 17 18 18 18 19 19 19 20 21 21 24 24 23 24 25 25 26 27 27 28 29 30 29 30 31 34 37 34 31 29 28 32 37 38 40 41 42 41 41 43 43 44 50 51 52 54 50 55 69 66 58 62 65 64 65 66 67 67 66 66 64 62 63 64 68 71
8 9 10 9 8 8 8 7 6 6 6 7 9 10 12 14 15 16 17 17 17 18 18 18 18 18 19 20 21 22 22 23 25 25 25 26 27 27 28 28 29 29 29 29 29 30 31 33 38 41 42 39 37 39 39 38 40 41 41 41 42 44 47 48 49 50 54 54 51 60 71 62 53 59 64 65 66 66 67 66 64 62 61 62 64 66 70 68
9 10 9 8 7 8 7 6 6 6 7 9 12 14 15 16 17 17 17 17 18 18 18 18 19 20 20 22 23 23 25 26 26 26 27 27 27 27 27 27 28 27 25 26 28 29 30 31 34 41 48 51 50 46 41 40 42 39 37 41 44 47 50 52 53 57 59 57 55 58 60 56 55 61 63 62 62 61 61 60 58 59 61 63 67 70 67 55
9 9 7 6 7 7 6 6 7 9 11 13 15 16 17 17 17 17 17 18 18 18 19 20 20 22 22 24 25 25 27 27 26 27 26 25 25 23 23 23 23 23 22 23 25 28 31 31 33 36 39 42 43 40 39 43 45 40 38 41 43 45 49 53 57 60 59 61 61 57 56 59 61 62 61 59 58 58 59 60 60 61 65 69 74 70 57 45
9 8 6 5 6 6 7 8 12 14 15 16 16 17 17 17 18 18 19 19 19 19 20 21 22 24 25 26 26 27 27 26 25 24 22 21 20 18 19 20 20 20 21 23 26 31 34 33 33 35 35 36 39 39 38 41 43 40 40 42 44 46 48 52 55 56 59 69 68 57 57 63 63 64 67 65 64 66 68 69 70 71 76 80 74 61 50 46
7 6 5 4 6 9 11 13 16 16 16 17 17 18 18 19 19 20 20 20 21 21 22 23 25 26 27 26 26 25 24 23 22 21 19 18 16 16 16 17 18 20 22 26 29 33 37 36 35 36 34 31 35 36 35 39 41 40 43 48 50 51 52 53 54 57 63 71 67 59 64 73 71 70 72 73 74 76 75 75 77 76 75 72 62 51 46 47
4 4 5 7 10 13 15 16 17 17 18 18 18 19 20 20 20 21 21 21 22 24 24 25 27 27 26 24 23 24 23 21 21 19 17 15 15 15 16 17 19 21 22 26 29 33 38 37 37 40 35 28 30 34 35 40 41 39 45 53 56 56 57 58 59 62 65 67 67 68 72 77 78 77 76 77 77 74 73 72 69 65 61 58 55 52 52 53
4 8 10 13 15 16 17 18 17 18 19 19 20 21 21 22 22 23 23 23 24 25 26 28 27 25 22 22 22 23 22 21 21 19 16 15 15 16 18 19 21 23 23 25 28 32 37 37 38 42 37 30 32 34 36 42 43 42 47 54 57 58 59 60 61 63 66 68 72 74 73 74 77 77 74 73 72 68 67 65 61 62 66 63 56 52 53 50
10 13 15 16 17 17 18 18 18 19 20 21 22 22 22 23 24 24 24 25 26 27 28 28 25 21 21 21 22 21 21 21 20 18 17 17 18 20 22 23 25 26 26 27 30 33 36 37 37 41 41 35 33 38 43 44 42 42 45 48 52 58 60 62 65 67 71 74 75 76 78 77 75 72 69 70 73 71 68 67 69 72 69 61 55 48 38 26
15 16 17 18 18 19 19 19 20 21 21 23 24 24 24 25 25 25 25 26 27 28 28 26 22 21 21 21 21 21 21 20 18 18 19 21 23 26 28 28 28 30 29 30 33 34 37 38 37 43 48 39 35 44 47 40 40 46 47 48 53 61 64 65 68 72 75 78 79 80 80 76 72 69 66 65 69 74 77 77 74 68 58 54 53 41 20 8
Wind_Speed
17 17 17 17 18 18 17 17 17 16 15 14 12 12 10 10 9 8 7 6 5 4 4 3 3 2 2 2 2 2 2 2 3 2 3 3 2 1 1 1 2 2 3 3 3 3 2 3 4 2 2 1 1 1 2 1 1 1 1 4 2 2 6 9 9 11 15 15 14 13 13 14 14 14 14 13 14 14 14 15 17 18 19 20 20 19 19 18
15 16 16 16 17 17 17 17 16 15 15 13 12 11 10 10 9 8 6 5 4 4 3 2 2 1 1 1 1 1 1 2 2 2 2 2 2 1 1 2 3 3 4 4 4 4 3 3 4 2 1 1 1 3 2 1 2 0 2 4 4 4 7 10 12 14 15 14 13 13 12 14 14 13 14 14 14 14 14 15 17 17 18 19 18 18 18 18
14 14 14 14 15 16 16 15 15 15 14 13 12 11 10 10 9 8 7 5 4 3 3 2 1 1 1 1 1 1 1 2 2 2 3 3 2 1 2 3 4 5 5 5 4 4 4 3 3 3 1 1 2 3 2 1 2 1 2 5 5 6 7 9 12 13 13 13 13 12 12 14 14 12 12 13 14 14 14 14 16 15 17 19 18 18 19 19
11 12 12 13 14 14 14 14 14 13 13 12 11 10 9 9 8 8 7 6 5 4 3 2 2 2 2 2 2 1 2 2 2 2 3 2 1 2 3 5 5 5 5 5 5 5 4 4 4 3 2 2 2 3 2 2 3 3 3 5 5 7 6 7 9 11 12 13 13 13 12 13 14 12 11 12 12 13 14 14 15 16 17 20 21 21 20 20
9 10 10 11 12 12 13 12 12 11 11 10 9 8 8 8 8 7 7 6 5 4 4 3 3 3 3 3 3 3 2 0 1 3 2 2 2 4 5 5 6 5 5 5 5 5 4 4 4 4 2 2 3 3 2 4 4 5 5 5 5 6 7 8 9 10 11 12 12 12 12 12 14 13 12 12 10 11 14 14 16 17 18 21 22 23 22 20
7 7 8 8 9 10 10 10 10 9 9 8 8 7 7 7 7 7 7 6 5 5 5 4 4 4 4 4 4 4 3 2 3 4 4 3 3 5 6 7 7 6 5 5 5 5 5 5 5 4 3 3 4 4 4 4 5 7 5 5 6 7 8 9 9 9 9 10 11 12 11 12 14 14 12 11 8 10 14 14 15 17 19 21 22 24 24 22
5 5 5 6 6 7 7 8 7 7 7 7 7 6 6 6 6 6 7 7 6 6 6 5 6 6 6 5 5 5 5 4 5 5 4 3 3 5 7 7 7 6 6 6 5 5 5 5 5 5 5 5 4 5 5 5 7 6 4 5 7 8 8 8 8 8 8 9 11 12 12 13 14 13 11 9 7 9 13 14 17 17 18 20 22 23 24 24
5 4 4 4 4 5 5 5 6 6 6 6 5 5 5 5 5 5 6 6 6 6 6 6 7 7 7 8 7 7 6 5 5 5 3 3 5 7 8 8 7 7 6 6 5 5 5 5 5 5 5 5 4 4 5 6 6 5 4 7 7 8 8 7 7 7 9 10 11 12 12 14 13 11 9 9 9 11 13 16 19 20 19 19 21 22 23 24
4 3 2 2 2 3 3 3 3 4 5 5 5 4 4 4 5 6 6 7 7 6 6 6 7 8 9 10 9 7 7 7 6 5 4 5 7 8 8 8 8 7 7 6 6 5 5 5 5 5 5 5 5 5 6 6 5 5 7 7 7 8 7 7 6 7 10 11 11 11 12 13 11 10 10 11 13 14 17 19 20 20 20 19 19 19 21 22
1 1 1 0 0 1 1 1 2 3 3 3 4 5 5 5 6 7 7 8 8 8 7 7 7 8 9 10 10 8 8 7 6 5 5 6 8 9 8 8 7 7 6 6 6 5 5 5 5 5 5 5 5 7 6 6 6 7 9 8 8 7 7 7 6 8 12 12 13 12 13 12 11 13 14 14 16 18 21 21 21 20 18 17 16 16 18 20
1 1 1 1 1 1 1 0 1 1 2 3 4 5 6 6 7 7 8 9 9 9 9 8 8 9 9 10 10 8 8 7 5 4 5 6 7 7 7 7 6 6 6 6 5 5 5 5 5 5 5 5 6 7 6 5 8 9 8 9 7 6 9 8 7 11 13 13 15 14 14 12 14 17 16 16 18 22 22 20 20 17 15 15 14 14 15 16
3 3 3 2 2 2 1 1 1 1 2 4 5 6 7 7 8 9 9 10 9 10 10 10 9 9 9 9 9 8 8 7 5 4 5 7 7 6 6 6 6 6 5 5 5 5 5 5 5 5 5 6 6 6 5 7 9 8 7 7 7 8 11 9 10 15 15 15 16 16 15 12 17 19 16 18 21 23 22 20 20 16 14 15 15 15 16 15
4 5 5 5 4 3 3 2 3 3 4 6 7 7 8 8 9 10 11 11 11 10 10 10 9 9 9 9 9 8 8 7 6 5 6 6 7 6 6 6 6 6 5 5 5 5 4 5 5 5 6 6 6 6 6 9 8 6 6 7 8 12 12 12 16 17 17 17 17 18 16 13 18 20 18 21 23 22 22 20 20 18 16 17 16 16 17 17
3 5 7 7 7 6 5 6 6 7 8 8 8 8 8 9 9 10 12 13 13 12 11 10 10 9 9 9 9 8 7 7 6 6 6 6 6 6 6 6 6 6 6 5 5 5 5 5 5 6 7 7 6 6 8 9 7 6 6 7 11 14 14 16 18 17 18 18 17 19 18 16 17 19 20 24 24 22 21 21 20 18 18 19 16 13 15 17
3 4 6 7 8 8 8 8 8 9 9 8 9 9 9 9 10 11 12 13 14 14 12 11 10 10 9 9 9 8 7 6 6 6 6 5 5 5 5 6 6 6 5 5 6 5 5 5 5 6 7 7 7 7 9 9 6 6 8 8 12 15 17 19 18 18 19 19 19 19 19 18 18 21 23 24 24 21 20 22 20 17 19 19 15 11 11 12
4 4 5 6 7 8 9 9 9 9 9 9 9 9 9 10 11 12 13 14 14 14 13 12 11 10 8 8 8 8 7 6 6 6 5 5 5 5 5 6 5 6 5 6 6 6 6 6 6 8 8 8 8 8 11 10 7 9 11 12 15 17 19 19 17 19 20 19 20 19 20 19 18 22 24 22 22 19 18 20 17 16 18 16 13 10 8 9
4 4 5 6 7 8 8 9 9 10 10 10 10 10 10 10 11 12 14 14 14 13 13 12 11 9 8 7 7 6 6 5 5 5 5 5 5 5 5 5 5 5 6 6 6 6 7 7 8 9 9 10 10 11 12 12 11 12 13 15 18 18 20 20 19 21 21 20 20 20 22 20 18 22 23 22 23 20 18 18 15 15 15 12 9 8 9 11
5 5 6 6 6 7 8 9 9 10 11 11 10 10 11 12 12 13 14 14 14 13 12 11 10 8 6 6 5 5 5 5 5 5 5 5 6 6 6 5 5 5 6 7 6 7 8 9 10 10 11 12 12 12 12 14 15 15 15 18 20 20 20 21 22 22 21 21 20 20 23 22 19 21 21 22 24 20 17 16 15 13 10 9 10 10 11 13
5 6 7 7 7 7 8 9 10 11 11 11 11 12 13 13 13 13 13 12 12 11 10 9 9 7 6 6 6 6 6 6 6 6 6 6 6 6 6 6 7 7 7 8 8 9 11 11 12 11 12 13 12 12 14 16 17 17 18 20 21 23 23 21 21 22 21 22 21 21 24 24 23 21 19 22 23 18 15 15 14 11 10 12 12 11 12 12
5 6 7 8 8 8 8 9 10 11 11 12 12 13 13 13 12 12 11 11 11 11 9 9 9 8 8 8 8 8 7 7 7 7 7 7 7 7 7 7 8 8 9 10 11 12 13 13 13 13 12 12 12 15 18 18 18 18 19 21 22 25 25 22 20 20 20 22 22 22 25 26 24 21 18 20 20 15 14 14 13 12 13 14 12 11 11 11
6 6 7 8 9 9 9 10 11 11 11 11 11 12 12 11 11 11 11 11 11 10 10 9 9 8 8 8 8 8 8 8 8 9 8 8 8 8 7 8 10 10 11 13 14 14 14 15 14 12 12 13 15 18 19 18 18 19 21 22 23 24 24 23 20 19 18 21 23 24 27 27 24 22 22 20 17 14 13 14 14 14 14 12 12 11 11 10
7 7 8 9 9 9 10 10 11 11 10 10 9 10 9 9 10 11 13 13 11 10 10 9 9 8 7 7 8 8 9 8 8 9 9 9 9 9 10 11 12 12 13 14 14 14 15 14 13 13 15 17 18 19 19 19 19 21 22 23 24 22 22 21 18 18 18 22 26 25 27 27 23 22 20 15 16 13 13 15 15 14 13 12 12 11 11 10
7 8 9 9 9 9 9 9 10 10 9 8 8 8 8 9 10 12 14 15 13 11 9 9 8 8 7 7 7 8 8 8 8 9 10 10 10 11 11 12 13 13 14 14 14 15 15 14 14 16 18 18 18 18 19 21 22 22 21 22 23 20 19 19 19 21 21 24 26 25 26 24 19 15 10 12 15 15 15 16 15 15 14 13 13 12 12 11
6 7 8 8 7 7 8 8 9 9 9 8 7 7 8 10 11 13 15 16 14 10 7 7 6 6 6 7 7 7 8 8 9 9 10 10 11 11 12 13 14 14 14 15 15 16 17 17 17 17 17 17 18 18 20 23 24 22 21 20 20 17 17 20 21 23 24 24 22 20 21 17 8 7 12 15 16 16 17 18 17 17 16 15 15 14 13 13
5 5 5 6 6 7 8 8 8 8 8 8 8 8 9 11 13 13 14 16 13 8 6 6 5 4 4 5 5 6 8 8 9 9 9 10 11 12 13 14 14 15 15 16 17 18 18 17 16 16 16 17 19 20 21 23 23 21 19 18 17 17 17 19 20 23 24 20 15 16 14 5 3 8 13 16 17 18 19 19 20 19 18 17 16 15 15 15
2 3 5 6 6 7 8 8 8 8 8 8 9 10 10 11 13 13 14 14 9 6 5 5 4 3 4 5 4 6 8 7 7 9 10 11 11 12 14 14 15 16 16 17 18 18 17 16 16 17 17 18 18 19 20 20 20 19 17 16 17 18 18 18 19 20 19 17 17 17 11 4 6 9 12 16 19 20 20 20 21 20 19 18 17 16 17 16
3 4 6 5 4 5 5 6 7 6 7 7 8 9 9 10 12 12 12 9 5 5 5 4 4 3 4 5 5 8 10 8 9 10 10 11 13 14 15 15 15 15 16 17 17 16 16 17 17 17 17 17 17 18 18 17 18 18 17 16 17 17 17 18 19 20 20 21 22 18 11 11 11 12 16 20 21 20 21 21 21 21 19 18 17 17 17 17
3 4 6 4 5 5 4 6 6 7 8 9 10 10 9 11 12 12 9 3 3 6 5 4 4 2 3 6 9 11 11 11 10 10 11 13 14 14 14 14 14 15 15 16 16 16 17 16 15 15 16 16 17 17 17 16 16 15 15 16 16 17 18 20 20 20 18 16 17 13 7 9 9 11 19 23 22 21 21 21 20 21 20 19 18 18 18 16
3 4 5 4 4 4 4 4 6 8 10 11 13 12 12 12 11 10 5 1 4 7 6 6 4 3 5 9 13 13 13 13 11 10 12 12 12 12 13 14 14 14 14 15 17 16 14 14 13 14 16 16 15 15 15 14 13 14 16 16 16 19 21 20 17 14 9 8 12 12 7 9 5 11 22 23 23 23 22 21 20 21 21 19 18 18 17 17
3 4 4 4 4 4 3 5 6 8 10 12 14 14 14 11 9 7 2 2 8 7 6 6 5 7 11 13 15 15 14 13 10 10 10 10 12 13 14 14 14 13 14 15 14 12 13 13 14 15 15 14 14 14 12 12 14 17 18 18 19 20 19 16 12 8 4 4 8 9 8 11 4 11 24 24 22 24 23 22 21 21 21 19 18 17 18 18
3 2 3 4 4 3 4 5 7 8 10 13 15 15 14 10 8 5 2 6 10 6 5 8 9 12 15 16 16 15 13 11 9 10 11 12 14 14 14 13 13 14 13 11 10 12 14 13 14 13 12 12 13 11 11 15 18 17 16 19 19 16 11 7 4 2 1 3 6 5 6 11 5 9 20 23 22 21 21 22 22 21 20 19 19 19 19 20
3 3 4 5 5 5 5 5 7 9 12 14 15 16 15 9 5 3 4 9 9 7 10 13 14 16 17 17 16 13 10 9 11 12 13 14 14 14 15 14 14 13 10 11 15 16 14 12 11 9 9 12 11 11 15 19 18 15 17 19 13 8 6 3 1 2 3 3 2 0 3 7 10 11 16 21 22 21 20 21 21 21 21 20 20 20 21 22
5 4 5 6 7 7 8 8 10 12 14 14 13 14 14 8 3 3 8 10 9 11 15 16 16 17 16 15 12 10 10 10 12 13 14 14 14 14 15 15 14 12 11 15 18 15 12 9 7 7 9 11 12 16 19 18 16 17 18 13 5 2 3 3 3 2 3 3 2 5 7 8 10 12 14 18 21 22 21 21 21 21 20 20 19 21 23 25
7 6 6 7 8 9 10 11 13 13 14 13 12 13 11 5 2 7 11 12 12 13 15 17 17 16 13 11 10 10 11 12 13 14 13 12 12 13 13 11 11 12 15 15 13 11 10 7 6 8 11 13 16 19 17 16 17 16 11 6 3 2 1 3 3 1 4 7 8 10 8 6 7 8 12 16 20 22 22 21 21 20 19 19 21 24 26 29
9 9 9 9 9 9 10 11 12 12 12 13 13 12 8 4 5 9 12 13 14 15 15 17 16 13 11 10 10 12 14 14 14 14 13 12 12 13 10 9 11 14 14 11 11 11 7 6 8 11 14 16 17 15 14 17 15 9 8 8 8 8 6 8 9 10 11 10 8 8 7 8 10 9 13 16 19 21 22 21 20 19 19 21 24 27 29 32
10 11 11 10 10 10 10 11 11 12 12 12 11 9 7 5 7 10 12 13 15 16 16 15 13 11 10 10 12 14 15 15 14 13 13 13 12 10 9 11 13 13 11 12 14 11 6 9 13 15 16 14 12 12 16 18 13 10 12 11 9 9 10 11 12 12 10 6 5 6 6 7 7 8 14 18 19 20 20 20 19 19 21 24 27 30 32 35
12 13 12 10 9 10 10 11 12 13 12 11 10 7 6 6 8 9 11 13 15 16 16 15 12 10 10 11 14 15 14 14 13 13 13 12 10 8 9 13 13 11 12 14 15 12 13 17 17 16 13 11 13 17 19 18 14 12 12 9 8 9 9 8 6 5 4 2 5 6 8 9 7 9 15 20 20 19 18 19 20 21 24 27 29 32 35 37
13 13 11 9 9 10 11 12 12 12 11 10 9 7 6 7 9 10 12 13 13 14 14 13 11 11 11 14 15 14 13 13 13 13 11 9 8 8 11 12 11 11 14 17 17 15 17 18 16 13 12 14 19 21 19 16 13 12 10 10 10 8 6 5 3 3 2 2 4 6 8 11 12 12 15 19 19 18 19 20 22 24 26 29 31 34 37 41
14 12 10 9 10 10 11 11 11 10 9 9 8 8 8 9 10 11 12 13 13 13 13 13 12 11 12 14 14 14 13 13 12 12 9 7 8 11 12 10 11 14 18 19 18 17 16 13 12 13 16 20 21 18 18 16 14 12 10 11 11 9 7 6 5 3 3 2 4 4 4 6 11 13 12 15 17 18 19 21 22 25 27 30 34 37 41 46
13 11 9 9 10 10 10 10 10 9 9 9 9 8 9 10 10 11 12 12 13 13 13 13 12 12 12 12 13 13 13 13 12 10 8 8 10 11 10 10 14 18 18 18 18 19 16 9 12 20 22 21 19 18 19 18 14 12 11 13 14 12 9 9 10 10 8 4 1 3 3 3 7 11 10 15 17 17 18 20 23 26 30 34 38 42 47 50
11 10 10 10 10 10 10 10 10 9 9 9 9 9 9 9 10 11 11 12 13 12 12 12 11 12 12 12 12 12 13 13 12 9 7 10 11 11 11 14 17 17 17 18 19 18 15 11 18 25 23 20 20 20 19 17 15 14 14 14 12 10 9 8 8 10 11 7 4 4 4 5 10 13 13 14 15 16 19 23 26 31 34 39 43 47 51 51
11 11 10 10 10 10 11 10 9 9 10 10 10 9 10 10 10 11 11 12 12 11 11 11 11 12 11 11 12 12 13 13 10 8 9 11 12 12 14 17 18 18 19 19 19 18 17 16 20 23 21 21 21 18 16 14 12 10 10 9 9 10 12 9 7 8 9 9 10 8 5 7 12 13 13 13 15 19 25 28 32 36 40 44 49 51 51 52
10 10 10 10 11 11 10 9 8 10 10 10 10 10 11 11 11 12 12 12 11 11 11 11 11 11 10 11 12 13 14 13 9 10 12 13 13 15 16 17 18 19 20 20 19 20 18 15 17 21 23 22 18 13 9 6 6 8 11 15 17 18 17 15 15 15 12 12 14 9 4 8 15 16 14 15 20 26 31 34 38 42 46 49 51 52 53 56
10 10 10 10 11 11 9 9 10 11 10 11 11 11 11 11 11 12 12 12 11 11 11 11 10 10 11 12 12 13 14 11 10 12 13 14 16 16 16 17 19 20 21 21 20 19 15 13 15 18 17 15 12 7 4 7 12 17 20 23 22 20 18 17 17 17 13 11 11 7 4 8 14 17 17 21 28 33 36 40 44 47 50 51 52 55 57 57
9 9 9 11 11 9 9 10 11 11 11 11 11 11 11 11 11 12 12 11 11 11 11 10 10 11 12 12 12 13 12 11 12 13 14 15 17 17 18 19 20 21 22 21 20 18 16 16 16 13 7 7 8 8 12 17 21 23 24 25 24 22 20 18 17 14 10 8 9 11 13 14 14 18 24 31 36 38 40 43 47 48 50 53 56 58 57 57
9 9 9 10 10 8 10 11 11 11 12 12 11 11 11 11 11 12 12 11 11 11 11 10 11 12 12 13 13 13 12 14 14 13 15 17 17 19 21 22 22 23 22 20 19 18 18 19 19 17 14 15 17 18 19 22 25 25 24 23 22 22 20 18 17 15 13 14 18 20 22 23 23 26 32 37 39 41 43 45 47 49 52 56 57 56 56 60
9 9 10 10 9 8 10 11 11 12 12 12 11 11 11 11 11 12 12 11 11 11 11 11 12 13 13 14 14 14 14 15 15 15 17 19 20 22 23 23 23 22 20 20 20 18 19 22 20 18 19 19 20 22 21 21 23 23 21 20 20 20 20 20 19 19 17 16 19 20 19 22 28 32 35 39 41 43 44 46 49 52 55 57 56 56 59 62
10 10 10 10 9 9 10 11 11 11 11 11 11 11 11 11 12 12 12 12 11 12 12 12 12 13 14 14 14 15 16 16 16 19 21 22 24 25 24 24 22 20 20 22 21 20 20 21 20 18 19 20 21 22 20 17 18 20 20 20 20 18 19 21 21 21 18 17 20 24 24 27 32 35 37 40 41 43 45 49 52 54 55 55 56 59 62 59
9 9 9 9 10 10 10 10 11 11 11 11 11 11 12 12 13 13 13 12 12 12 12 12 12 13 13 14 15 16 16 18 19 21 23 25 25 25 25 23 21 22 23 23 22 21 19 18 18 18 21 24 22 19 18 17 19 22 22 20 19 18 19 21 20 19 19 21 24 27 30 32 33 35 37 39 42 45 49 51 52 51 52 55 59 60 56 50
8 9 9 9 9 9 10 10 11 11 12 12 12 13 13 14 14 14 13 12 12 12 12 12 12 12 13 14 15 16 17 19 20 23 25 26 26 25 25 23 22 24 24 22 21 19 17 17 17 19 23 25 21 19 20 19 20 23 23 21 20 20 20 19 20 20 21 23 25 28 32 33 33 36 39 42 46 49 50 51 50 50 54 59 58 53 47 44
8 9 9 8 8 9 10 11 11 12 12 13 14 14 14 14 14 14 13 12 12 12 12 11 11 12 14 15 16 18 19 20 22 25 26 26 26 25 24 24 24 23 22 20 19 17 16 17 18 19 22 25 22 21 21 19 19 20 20 18 17 17 17 17 18 20 21 25 28 30 32 35 38 42 46 47 48 49 49 50 52 54 58 56 50 45 44 44
9 9 9 9 9 10 11 11 12 13 13 14 14 14 14 14 14 14 13 12 12 12 11 11 11 13 15 17 19 21 21 22 24 25 25 24 24 23 23 23 22 20 19 18 17 17 16 17 19 18 19 23 24 21 21 20 15 11 12 14 15 15 17 19 20 20 21 25 29 31 35 40 44 48 49 48 48 48 50 53 55 56 54 48 43 44 45 44
Wind_Direction
94 94 93 93 94 94 95 95 96 98 99 100 101 100 97 92 88 86 86 88 90 92 92 89 95 103 122 136 148 144 145 157 147 171 183 161 154 177 226 288 298 306 307 305 309 308 316 291 270 250 246 218 181 135 77 19 353 21 203 212 220 198 220 243 266 285 293 297 298 298 294 296 303 308 309 310 311 309 309 303 296 299 301 302 309 311 311 311
90 90 90 91 92 93 92 93 94 96 96 96 95 93 89 85 81 79 78 79 83 88 88 86 83 84 111 140 189 167 161 185 167 191 204 180 180 217 268 299 306 309 308 306 302 302 301 274 267 267 270 247 141 82 69 20 334 16 215 241 242 230 239 260 278 287 291 294 298 302 302 302 307 310 310 310 310 307 304 299 300 307 307 307 310 311 311 311
89 88 88 89 90 90 89 90 91 94 95 93 90 86 80 76 72 67 64 62 62 60 64 65 51 11 305 276 254 228 202 215 206 209 212 206 206 249 304 317 317 315 311 308 303 303 300 290 293 302 349 17 43 46 47 10 322 281 254 267 266 264 265 272 281 288 292 297 302 307 307 306 308 312 311 310 311 308 305 308 311 316 312 310 312 312 312 310
93 91 91 91 90 88 87 86 87 88 89 89 87 83 76 70 64 58 52 45 39 34 34 22 351 330 312 290 278 259 217 210 218 226 225 227 249 313 326 325 322 321 316 313 310 309 305 306 301 296 342 27 19 25 7 340 321 304 302 289 278 283 292 288 287 295 298 303 310 311 312 312 311 317 319 313 316 311 312 319 316 315 313 312 314 314 312 311
99 97 95 95 93 89 86 84 83 81 81 80 78 74 68 63 56 49 42 34 24 13 7 357 334 320 308 294 291 273 256 286 254 250 257 273 314 325 329 330 329 329 325 323 316 314 310 301 285 284 324 7 358 17 342 324 322 318 320 307 297 303 309 302 297 300 302 309 313 313 319 320 317 326 327 317 321 318 317 321 314 315 317 314 313 311 308 307
106 103 99 99 98 93 88 84 81 79 77 75 70 62 52 46 39 32 26 21 13 358 349 340 324 314 309 301 300 289 291 319 285 270 274 280 312 325 331 335 335 336 332 332 324 318 310 295 290 298 335 353 348 350 330 322 320 320 324 312 311 314 310 305 303 303 309 316 317 320 328 327 323 330 329 318 324 324 318 315 311 316 317 313 311 308 306 304
114 113 102 103 107 103 96 90 83 78 78 77 70 61 47 34 23 14 7 4 0 350 340 330 318 307 303 298 302 305 301 303 290 281 276 276 315 329 333 337 338 338 335 336 330 322 313 309 317 325 344 349 336 328 324 322 317 317 321 313 315 316 311 309 307 307 319 326 325 329 333 330 328 332 330 318 321 320 310 306 308 313 314 310 307 306 304 301
122 125 105 100 114 114 103 93 84 78 81 81 74 66 50 30 14 4 351 346 344 339 332 323 316 303 298 295 298 308 304 300 297 291 294 312 332 335 335 340 341 337 336 334 326 323 321 324 328 329 342 343 332 325 321 320 317 313 311 311 317 317 315 314 307 313 328 332 332 334 334 330 329 334 330 317 322 320 311 309 311 314 312 305 301 301 300 298
125 141 123 100 116 121 107 91 86 80 77 77 69 58 38 19 6 357 343 335 331 329 325 320 315 305 298 293 292 301 297 294 297 299 317 333 340 340 340 342 338 332 330 324 320 324 327 327 324 327 335 333 334 330 322 321 315 310 313 314 321 318 313 313 307 320 333 332 332 333 330 327 328 335 330 324 328 326 321 318 315 315 312 305 298 294 294 295
117 158 177 169 185 168 126 90 94 78 64 60 49 38 22 8 356 347 338 333 330 325 321 318 311 304 300 293 291 295 288 285 291 298 321 338 342 340 337 333 325 316 313 314 316 324 328 328 325 329 332 329 332 328 321 322 316 317 319 316 321 316 312 310 300 320 333 330 329 332 330 330 333 335 334 333 332 327 324 321 317 316 314 312 305 295 292 292
275 278 264 279 289 286 284 209 128 53 30 24 19 14 6 357 348 338 330 328 327 324 319 314 307 300 297 294 293 293 285 281 285 296 322 339 340 334 327 318 307 298 300 306 312 320 327 330 329 331 332 327 330 330 326 323 319 318 316 313 313 316 320 313 302 320 329 328 328 332 333 334 337 337 337 336 331 326 324 320 315 316 316 316 312 303 296 293
261 270 271 281 293 305 310 288 296 335 343 344 345 344 343 341 339 334 327 323 321 318 314 310 306 300 295 292 290 288 285 280 282 307 330 336 334 326 322 314 302 293 295 304 313 322 328 331 331 333 330 326 332 334 329 323 321 318 315 313 306 317 326 319 317 323 325 327 330 332 334 337 338 336 337 335 329 325 324 318 311 310 311 312 311 308 303 297
263 263 264 269 275 283 293 293 300 308 313 319 323 326 328 330 333 332 328 324 319 313 308 305 303 299 294 290 288 285 285 286 293 319 332 331 325 319 318 314 303 293 294 304 317 325 330 332 330 332 332 330 334 331 327 327 322 315 318 315 308 319 326 322 322 323 323 325 327 330 331 337 337 332 335 335 328 323 321 314 306 304 308 311 311 307 302 301
284 274 271 270 269 273 277 281 289 294 297 302 306 310 316 322 330 331 329 326 322 314 307 302 298 293 290 288 289 288 291 297 305 322 328 324 317 311 309 308 304 300 298 301 313 323 330 332 329 331 335 333 331 326 330 331 319 308 313 311 314 321 322 318 319 319 320 320 322 325 324 331 335 327 333 333 326 323 320 311 304 303 310 313 314 306 295 296
316 299 284 276 273 271 272 277 283 286 287 288 291 297 305 315 325 328 326 324 321 316 307 300 292 287 286 286 287 287 291 300 308 317 319 315 309 304 298 296 299 301 301 300 308 316 320 325 329 330 331 330 324 318 326 330 320 311 308 303 312 315 312 312 314 314 315 314 317 319 317 326 332 327 332 330 323 323 314 306 305 307 313 314 315 310 295 289
326 314 299 285 277 272 271 273 278 279 277 275 278 288 298 308 318 323 322 320 318 315 307 298 290 286 286 286 285 284 288 298 308 311 307 305 302 300 295 292 296 298 301 303 300 305 315 321 324 324 323 324 319 313 322 327 324 314 306 304 309 307 305 308 310 310 311 311 312 312 311 322 330 329 332 325 318 316 304 301 305 307 311 311 311 306 295 286
327 320 308 296 285 279 276 274 276 275 269 267 272 283 294 304 313 317 317 316 314 311 305 296 290 290 288 284 282 282 286 298 308 304 300 302 301 300 297 297 305 300 299 303 298 302 313 311 312 318 320 319 318 319 325 325 318 311 303 303 306 304 305 308 309 308 308 307 307 307 309 317 327 329 327 317 312 308 298 300 302 300 303 301 294 282 280 282
323 322 319 311 301 292 285 281 281 280 271 266 272 284 295 303 308 311 312 313 312 310 305 297 294 296 292 283 282 284 288 301 309 302 299 302 300 299 296 298 304 295 293 299 294 294 299 298 305 317 318 317 319 322 323 316 310 306 300 301 304 303 303 306 307 307 306 306 307 308 308 313 323 328 323 311 308 302 292 294 295 290 283 273 270 268 274 278
315 318 318 317 316 308 299 291 286 286 280 274 279 289 296 302 304 306 310 309 305 306 305 298 295 297 290 283 285 285 287 300 305 301 299 298 298 298 297 298 298 295 297 295 286 288 294 299 307 314 313 313 316 315 312 309 306 303 299 301 304 303 303 305 305 304 306 306 307 309 308 312 320 325 320 307 301 293 281 282 281 269 257 260 266 267 269 269
298 308 310 309 313 314 312 307 298 294 289 284 286 291 296 301 302 303 308 307 303 302 302 297 294 292 287 283 282 281 285 294 297 297 297 295 297 299 299 300 299 300 298 291 287 292 297 302 307 309 307 307 306 306 307 307 306 302 300 301 301 302 304 307 305 304 308 305 306 311 307 311 320 321 313 298 287 277 270 270 260 247 251 259 263 262 261 261
297 304 308 304 303 307 310 310 306 302 296 291 290 290 294 301 304 306 311 314 310 303 300 298 294 292 290 284 280 282 286 291 294 293 292 294 298 298 298 298 296 295 291 288 291 295 297 300 304 304 302 303 303 303 304 303 302 302 301 300 299 302 305 308 306 305 308 302 304 310 307 312 321 314 301 283 264 253 258 259 249 244 246 250 253 255 256 257
306 308 314 311 304 304 308 309 309 307 302 295 291 292 299 309 316 319 321 321 317 308 300 298 295 292 291 287 283 284 287 292 293 289 290 294 295 295 296 294 292 293 291 290 294 296 297 300 302 301 301 302 300 300 300 298 300 302 302 299 300 305 306 306 305 305 306 303 306 311 309 316 320 303 289 263 240 239 249 251 245 241 238 238 242 245 249 253
308 309 314 314 308 306 310 313 315 312 305 297 296 300 310 319 325 329 328 324 319 312 303 297 294 290 288 290 292 292 293 296 291 287 291 292 293 294 293 292 292 294 295 295 297 296 296 299 299 299 299 298 296 298 299 298 301 302 301 300 302 307 306 303 305 305 305 305 308 311 311 317 315 288 250 206 219 235 239 237 231 228 228 230 234 237 241 247
303 306 309 310 309 310 315 318 321 317 307 302 304 312 322 326 330 332 329 325 321 319 312 307 303 298 294 294 298 300 300 302 297 292 293 292 294 294 291 292 292 293 294 295 296 297 299 301 299 299 299 298 299 302 302 301 302 303 303 304 306 311 307 303 304 305 306 307 307 311 314 320 310 244 198 193 216 231 229 225 221 220 222 225 229 232 235 241
299 303 308 309 309 312 314 316 318 316 310 312 314 315 322 327 330 331 327 323 324 330 326 321 319 314 320 316 312 316 310 305 301 296 295 296 296 295 295 295 294 296 296 295 296 299 300 301 301 302 301 302 303 304 304 303 304 306 308 310 311 312 309 304 303 304 305 306 305 311 319 335 170 203 208 211 220 221 217 217 219 221 224 227 230 233 238 246
338 344 335 323 317 319 318 318 319 314 315 327 328 321 321 323 325 328 325 321 326 346 344 343 347 343 354 345 328 333 325 311 307 301 297 297 297 298 299 297 297 299 297 297 298 299 299 301 303 303 303 304 305 306 306 305 307 310 312 315 314 313 309 305 303 301 299 298 298 299 292 233 204 218 230 230 222 217 212 213 221 226 231 235 238 241 247 255
45 16 356 345 346 351 351 352 355 350 345 350 345 334 325 320 322 327 330 327 338 3 357 352 1 1 6 2 340 335 331 318 312 306 300 301 301 301 301 300 301 301 300 299 298 300 303 304 303 303 305 308 309 308 307 308 311 312 316 320 316 312 310 307 304 297 293 294 296 291 260 242 253 241 235 231 220 214 213 215 223 230 237 241 245 250 254 262
18 358 354 352 357 360 360 3 12 10 5 3 355 347 333 324 326 326 330 349 356 357 354 342 355 356 344 346 336 332 328 321 318 311 307 307 307 307 307 306 307 306 304 299 299 304 305 304 304 305 309 311 310 310 311 314 315 315 321 322 315 313 311 307 300 294 295 295 297 295 236 230 262 233 218 222 220 217 218 221 227 233 241 246 249 255 259 265
333 338 345 352 352 347 342 347 349 351 358 360 355 352 340 331 331 324 318 359 346 344 342 331 328 311 312 324 328 326 326 325 324 319 316 314 313 313 312 311 312 309 305 303 304 307 306 306 308 308 311 311 310 314 316 320 324 322 322 319 314 314 310 303 294 289 296 279 285 300 242 214 253 217 206 209 218 224 225 225 230 237 244 248 252 258 264 271
306 323 344 351 346 344 342 341 338 339 350 357 355 353 347 338 336 339 343 340 335 332 332 331 322 313 313 319 323 325 329 331 331 327 324 319 315 314 315 314 313 310 308 307 307 309 309 308 309 311 311 310 313 320 321 326 328 322 320 317 314 314 307 297 287 287 306 260 280 307 241 213 240 219 208 208 218 230 234 233 236 242 246 252 257 264 271 279
310 325 340 330 329 340 337 334 334 335 344 352 351 351 352 344 337 358 21 327 331 331 333 336 330 322 321 323 326 329 332 334 334 330 323 318 317 318 321 320 317 317 315 314 315 315 313 309 310 312 309 310 316 322 321 322 324 321 319 319 319 317 308 292 274 262 279 264 286 308 215 207 235 220 207 212 223 234 239 239 242 245 249 256 263 271 280 289
340 336 320 309 316 329 325 323 327 330 338 344 344 344 349 349 346 1 332 322 326 328 330 330 328 328 327 328 329 332 336 336 334 330 324 323 324 326 329 330 331 332 330 328 325 321 319 316 316 313 310 315 318 320 320 321 324 322 319 322 324 329 332 309 240 217 241 235 219 235 199 222 254 246 222 224 231 235 235 237 242 245 251 259 268 280 290 297
4 339 310 304 309 313 314 315 317 322 329 335 337 338 341 346 353 333 326 326 323 324 327 327 328 330 329 330 333 334 338 337 334 332 330 329 329 331 336 338 342 347 338 331 330 329 331 331 326 318 317 319 318 319 321 323 325 321 319 324 329 14 5 301 280 290 269 237 211 287 290 269 259 253 241 235 234 234 232 235 243 249 257 267 279 290 297 304
10 347 320 309 304 304 308 311 314 318 325 332 335 335 336 339 317 315 322 326 324 325 327 326 328 330 328 332 338 340 340 338 336 336 335 334 331 333 340 343 345 344 336 334 336 333 327 322 321 318 316 315 314 317 321 323 324 320 319 324 291 282 263 245 263 279 274 280 281 285 286 274 265 246 232 229 228 230 233 238 247 255 265 277 288 295 301 307
5 351 335 321 310 311 314 315 319 323 328 333 335 337 342 338 312 317 323 326 326 327 328 327 329 330 331 335 339 344 343 337 336 338 337 337 334 336 343 343 338 338 340 342 340 330 307 290 305 311 311 311 311 315 321 325 326 317 310 306 288 285 259 248 272 277 281 297 291 265 251 262 268 244 227 228 228 231 237 243 251 260 272 283 291 296 302 307
353 347 338 329 323 324 327 327 329 330 331 335 338 343 346 335 323 324 327 326 326 327 329 331 333 333 335 337 338 341 340 335 336 340 340 336 334 337 340 335 334 339 345 344 339 332 299 291 308 313 314 315 314 318 321 323 321 304 300 296 286 287 274 266 280 285 286 299 280 243 234 248 248 230 227 229 230 235 240 247 257 269 280 288 294 298 304 308
342 340 335 332 332 334 335 334 333 332 334 340 348 353 350 341 335 330 327 326 327 329 332 336 338 337 335 333 335 339 340 337 338 340 339 331 329 334 334 331 334 338 339 339 337 329 310 307 315 321 322 323 322 321 322 322 318 306 300 297 297 295 280 265 277 306 319 294 263 245 236 238 230 228 227 224 229 238 244 256 268 277 285 290 296 301 305 309
337 336 336 337 338 338 337 334 333 336 341 348 354 355 354 346 338 332 329 329 331 332 334 338 337 334 331 329 333 340 341 339 339 339 338 331 327 333 333 332 334 334 334 334 331 328 319 312 317 326 325 325 325 322 322 323 319 310 301 301 307 300 281 261 253 310 325 282 281 258 246 255 261 258 239 226 231 242 252 264 272 281 288 292 298 304 307 311
336 337 340 343 342 339 338 338 339 344 351 356 358 356 350 343 337 334 333 333 336 335 335 337 335 331 331 331 333 338 340 342 344 341 339 337 332 331 333 334 333 330 330 330 326 327 325 310 304 317 318 320 323 321 321 320 313 307 300 301 308 298 278 263 242 249 257 263 289 281 263 266 274 279 261 240 241 248 258 270 280 289 296 300 305 308 310 312
338 341 343 343 342 341 344 347 348 351 356 359 2 359 347 341 338 336 336 335 337 337 336 336 334 333 334 334 335 338 341 344 346 342 339 341 339 335 334 333 330 327 326 327 325 324 324 300 286 305 314 316 321 322 319 314 304 298 296 300 301 290 275 270 263 260 257 246 253 288 301 286 286 293 273 252 254 260 271 284 294 300 304 307 309 310 311 313
339 340 341 342 345 348 350 352 354 357 1 1 1 357 348 343 340 338 338 338 338 338 337 337 337 336 336 338 340 341 342 342 344 347 344 341 342 337 329 326 326 325 324 324 324 323 321 299 287 300 311 316 320 321 316 307 297 292 294 299 297 282 271 270 269 260 248 241 251 272 285 287 287 279 257 251 261 275 288 298 303 306 308 310 311 312 314 315
339 338 340 344 349 352 352 356 1 360 359 359 357 354 350 346 344 341 341 341 341 341 341 341 340 338 338 342 344 343 343 342 344 349 344 340 338 331 326 324 324 324 324 323 324 323 319 305 293 299 311 318 319 318 311 305 302 295 292 299 304 295 282 268 270 274 257 254 269 276 275 271 267 254 244 261 282 294 302 306 306 307 309 311 313 314 315 315
339 339 341 346 350 351 353 359 3 358 356 356 355 354 353 350 346 344 344 345 347 347 345 343 343 343 345 347 346 346 346 345 345 346 342 338 336 330 327 326 324 324 325 324 323 322 320 310 299 303 312 316 319 318 310 308 315 307 300 302 304 303 296 283 275 280 279 270 268 270 263 246 244 241 248 274 292 300 304 304 305 308 310 312 314 313 312 312
340 342 344 347 349 352 356 357 357 357 359 358 356 355 353 350 348 347 347 349 352 351 348 347 348 350 351 351 350 349 349 347 342 341 340 337 334 331 328 326 324 324 324 323 320 320 318 308 302 309 318 323 330 335 314 306 308 306 303 305 306 304 300 291 282 280 282 277 260 241 238 244 239 243 262 284 295 300 302 304 307 310 312 313 312 310 311 312
344 346 347 347 348 352 355 355 356 0 2 359 357 357 355 353 351 351 352 353 355 353 351 353 354 354 354 354 352 351 351 347 341 339 339 337 334 330 327 326 325 324 324 323 322 320 315 307 304 304 300 303 310 309 306 306 305 303 303 304 305 303 297 291 287 279 270 266 249 243 264 274 255 250 267 280 287 290 295 299 304 308 309 309 309 310 313 314
345 347 347 348 351 356 355 356 0 3 1 358 359 0 359 357 355 354 354 356 355 355 356 359 358 356 356 355 353 353 352 347 342 341 339 337 335 331 328 327 326 325 325 324 324 322 314 310 309 302 290 290 297 304 310 308 303 303 304 303 303 302 299 293 284 274 272 280 278 272 275 277 273 272 277 282 287 291 296 301 305 308 309 309 311 314 315 315
345 346 349 354 360 2 359 360 2 2 1 2 4 4 2 360 358 356 356 357 358 359 1 2 359 357 356 355 354 354 352 347 343 341 339 337 334 331 329 328 327 326 326 325 324 321 314 313 314 311 306 306 308 313 316 310 304 304 305 306 306 303 300 296 289 289 292 288 284 287 286 280 284 290 293 296 300 302 305 308 309 311 311 311 312 313 314 314
346 348 354 1 6 4 2 3 4 4 6 7 6 6 3 1 1 360 360 1 3 3 2 2 360 356 355 355 353 352 349 346 343 340 339 336 333 331 329 329 327 327 327 325 323 322 317 315 317 317 315 316 317 319 320 315 310 309 309 311 310 303 299 299 298 299 296 282 283 293 292 287 291 296 299 302 305 307 308 309 310 311 310 309 310 311 312 311
350 358 3 5 5 5 4 5 8 11 11 8 7 7 5 5 4 3 4 5 4 3 2 2 360 357 356 354 351 350 347 344 341 338 335 334 332 330 329 328 327 327 326 325 324 324 319 315 318 317 315 319 323 324 325 323 318 314 313 314 310 303 301 302 300 299 291 284 287 291 289 290 294 297 300 304 306 307 308 308 309 309 308 307 310 311 311 312
2 9 11 7 7 8 7 8 13 16 13 10 9 10 8 7 6 4 3 3 2 1 359 359 359 356 355 353 349 346 343 339 337 335 333 333 332 331 329 327 327 325 325 326 325 324 318 315 318 317 315 320 329 329 325 321 315 311 309 308 305 301 300 298 296 296 293 290 288 287 287 292 296 298 302 305 306 307 308 308 309 310 309 310 312 313 315 318
10 13 14 12 12 12 11 12 16 17 15 12 10 10 8 5 3 2 1 359 358 357 355 355 357 355 353 351 347 343 340 338 336 335 334 334 333 331 328 326 325 324 324 328 326 323 320 317 320 320 314 320 331 331 323 319 311 303 301 304 307 300 295 295 296 296 295 293 292 292 295 299 303 305 308 308 307 308 309 310 312 312 311 313 315 318 320 321
15 17 19 17 17 19 17 18 20 17 15 13 9 7 4 1 360 358 358 356 353 353 352 350 352 351 349 349 346 343 341 338 336 334 333 332 331 330 328 325 325 325 326 329 327 323 321 319 323 322 313 319 331 330 323 324 318 303 305 316 316 305 298 298 296 294 293 293 295 300 304 307 308 309 310 309 310 310 311 312 313 313 313 316 320 321 321 321